Probability
0 0 0 0 0 0 0 0 0 0 0 0 0 0 0 0 0 0 0 0 0 0 0 3 10 10 19 16 23 26 45 45 45 29 23 10 10 13 3 3 0 0 0 0
0 0 0 0 0 0 0 0 0 0 0 0 0 0 0 0 0 0 0 0 0 0 0 0 0 3 13 19 23 26 32 35 39 32 32 16 13 10 3 3 0 0 0 0
0 0 0 0 0 0 0 0 0 0 0 0 0 0 0 0 0 0 0 0 0 0 0 0 0 3 3 6 19 29 35 35 35 35 29 19 10 6 0 3 0 0 0 0
0 0 0 0 0 0 0 0 0 0 0 0 0 0 0 0 0 0 0 0 0 0 0 0 0 0 0 3 3 16 23 23 26 29 19 16 6 3 0 0 0 3 3 0
0 0 0 0 0 0 0 0 0 0 0 0 0 0 0 0 0 0 0 0 0 0 0 0 0 0 0 0 0 6 6 10 10 10 10 13 13 0 3 0 0 0 3 0
0 0 0 0 0 0 0 0 0 0 0 0 0 0 0 0 0 0 0 0 0 0 0 0 0 0 0 0 0 0 3 0 3 10 10 10 10 6 3 0 0 0 0 0
0 0 0 0 0 0 0 0 0 0 0 0 0 0 0 0 0 0 0 0 0 0 0 0 0 0 0 0 0 0 0 0 0 0 0 0 3 3 3 3 0 0 0 0
0 0 0 0 0 0 0 0 0 0 0 0 0 0 0 0 0 0 0 0 0 0 0 0 0 0 0 0 0 0 0 0 0 0 0 0 3 0 0 0 0 0 0 0
0 0 0 0 0 0 0 0 0 0 0 0 0 0 0 0 0 0 0 0 0 0 0 0 0 0 0 0 0 0 0 0 0 0 0 0 0 0 0 0 0 0 0 0
0 0 0 0 0 0 0 0 0 0 0 0 0 0 0 0 0 0 0 0 0 0 0 0 0 0 0 0 0 0 0 0 0 0 0 0 0 0 0 0 0 0 0 0
0 0 0 0 0 0 0 0 0 0 0 0 0 0 0 0 0 0 0 0 0 0 0 0 0 0 0 0 0 0 0 0 0 0 0 0 0 0 0 0 0 0 0 0
0 0 0 0 0 0 0 0 0 0 0 0 0 0 0 0 0 0 0 0 0 0 0 0 0 0 0 0 0 0 0 0 0 0 0 0 0 0 0 0 0 0 0 0
0 0 0 0 0 0 0 0 0 0 0 0 0 0 0 0 0 0 0 0 0 0 0 0 0 0 0 0 0 0 0 0 0 0 0 0 0 0 0 0 0 0 0 0
0 0 0 0 0 0 0 0 0 0 0 0 0 0 0 0 0 0 0 0 0 0 0 0 0 0 0 0 0 0 0 0 0 0 0 0 0 0 0 0 0 0 0 0
0 0 0 0 0 0 0 0 0 0 0 0 0 0 0 0 0 0 0 0 0 0 0 0 0 0 0 0 0 0 0 0 0 0 0 0 0 0 0 0 0 0 0 0
0 0 0 0 0 0 0 0 0 0 0 0 0 0 0 0 0 0 0 0 0 0 0 0 0 0 0 0 0 0 0 0 0 0 0 0 0 0 0 0 0 0 0 0
0 0 0 0 0 0 0 0 0 0 0 0 0 0 0 0 0 0 0 0 0 0 0 0 0 0 0 0 0 0 0 0 0 0 0 0 0 0 0 0 0 0 0 0
0 0 0 0 0 0 0 0 0 0 0 0 0 0 0 0 0 0 0 0 0 0 0 0 0 0 0 0 0 0 0 0 0 0 0 0 0 0 0 0 0 0 0 0
0 0 0 0 0 0 0 0 0 0 0 0 0 0 0 0 0 0 0 0 0 0 0 0 0 0 0 0 0 0 0 0 0 0 0 0 0 0 0 0 0 0 0 0
0 0 0 0 0 0 0 0 0 0 0 0 0 0 0 0 0 0 0 0 0 0 0 0 0 0 0 0 0 0 0 0 0 0 0 0 0 0 0 0 0 0 0 0
0 0 0 0 0 0 0 0 0 0 0 0 0 0 0 0 0 0 0 0 0 0 0 0 0 0 0 0 0 0 0 0 0 0 0 0 0 0 0 0 0 0 0 0
0 0 0 0 0 0 0 0 0 0 0 0 0 0 0 0 0 0 0 0 0 0 0 0 0 0 0 0 0 0 0 0 0 0 0 0 0 0 0 0 0 0 0 0
0 0 0 0 0 0 0 0 0 0 0 0 0 0 0 0 0 0 0 0 0 0 0 0 0 0 0 0 0 0 0 0 0 0 0 0 0 0 0 0 0 0 0 0
0 0 0 0 0 0 0 0 0 0 0 0 0 0 0 0 0 0 0 0 0 0 0 0 0 0 0 0 0 0 0 0 0 0 0 0 0 0 0 0 0 0 0 0
0 0 0 0 0 0 0 0 0 0 0 0 0 0 0 0 0 0 0 0 0 0 0 0 0 0 0 0 0 0 0 0 0 0 0 0 0 0 0 0 0 0 0 0
0 0 0 0 0 0 0 0 0 0 0 0 0 0 0 0 0 0 0 0 0 0 0 0 0 0 0 0 0 0 0 0 0 0 0 0 0 0 0 0 0 0 0 0
Height
5652 5657 5662 5667 5673 5679 5684 5690 5696 5701 5706 5711 5717 5723 5728 5733 5739 5745 5751 5757 5763 5768 5774 5779 5784 5790 5794 5798 5802 5806 5810 5813 5816 5818 5820 5823 5825 5826 5828 5829 5830 5831 5832 5833
5655 5659 5663 5667 5671 5677 5682 5688 5693 5698 5702 5707 5712 5717 5722 5728 5734 5740 5745 5750 5756 5760 5766 5771 5776 5781 5786 5790 5794 5798 5801 5805 5807 5810 5813 5815 5817 5818 5820 5821 5822 5823 5824 5825
5657 5661 5663 5667 5671 5675 5681 5686 5690 5695 5699 5703 5707 5712 5717 5723 5728 5733 5738 5743 5748 5753 5758 5762 5767 5772 5777 5781 5786 5789 5793 5796 5799 5802 5804 5806 5808 5809 5811 5813 5813 5814 5815 5815
5658 5661 5664 5667 5670 5674 5678 5683 5687 5692 5695 5699 5703 5707 5713 5717 5722 5727 5732 5737 5742 5746 5750 5754 5759 5764 5768 5773 5777 5780 5784 5787 5790 5792 5795 5797 5799 5801 5802 5803 5805 5805 5806 5807
5660 5662 5664 5666 5669 5672 5676 5681 5685 5688 5691 5695 5698 5702 5708 5711 5715 5721 5725 5730 5734 5738 5742 5746 5750 5755 5759 5763 5767 5771 5774 5777 5780 5783 5785 5787 5789 5791 5792 5794 5795 5796 5796 5797
5661 5662 5663 5665 5668 5671 5674 5679 5681 5684 5686 5690 5695 5697 5702 5706 5710 5715 5718 5722 5726 5729 5734 5737 5741 5746 5751 5754 5758 5761 5764 5768 5770 5772 5775 5777 5779 5780 5782 5783 5784 5785 5786 5786
5662 5663 5663 5665 5667 5670 5673 5676 5679 5681 5682 5686 5690 5690 5697 5701 5704 5708 5711 5714 5717 5720 5725 5728 5732 5736 5741 5744 5748 5751 5754 5757 5760 5762 5764 5766 5768 5770 5771 5773 5774 5775 5775 5776
5662 5663 5663 5664 5666 5668 5670 5673 5677 5678 5680 5682 5683 5686 5693 5695 5697 5700 5704 5706 5709 5712 5716 5720 5723 5727 5731 5734 5737 5741 5744 5747 5749 5752 5754 5756 5757 5759 5760 5761 5762 5763 5764 5764
5661 5662 5663 5663 5664 5666 5668 5670 5673 5674 5675 5676 5679 5682 5686 5688 5690 5693 5696 5699 5701 5705 5708 5711 5714 5717 5721 5724 5727 5730 5733 5736 5739 5741 5743 5745 5746 5748 5749 5750 5751 5752 5752 5753
5661 5661 5661 5662 5663 5664 5666 5667 5668 5669 5670 5672 5674 5677 5679 5681 5684 5686 5689 5691 5694 5697 5700 5702 5705 5708 5711 5714 5717 5720 5722 5725 5728 5730 5732 5734 5735 5736 5738 5739 5740 5740 5741 5741
5659 5659 5660 5660 5660 5661 5662 5664 5664 5665 5666 5667 5669 5674 5673 5675 5677 5679 5681 5683 5686 5689 5692 5694 5696 5699 5702 5705 5707 5710 5712 5715 5717 5719 5721 5722 5724 5725 5726 5727 5728 5728 5729 5729
5656 5656 5656 5657 5657 5657 5658 5659 5660 5660 5661 5661 5662 5668 5668 5669 5670 5672 5673 5676 5678 5680 5683 5685 5688 5690 5693 5695 5697 5700 5702 5704 5706 5708 5710 5711 5712 5713 5714 5715 5716 5717 5717 5718
5654 5653 5653 5653 5655 5654 5653 5654 5654 5654 5654 5655 5656 5661 5661 5662 5662 5664 5665 5667 5670 5672 5674 5677 5679 5681 5684 5686 5688 5690 5692 5694 5696 5697 5699 5701 5701 5703 5703 5704 5705 5705 5706 5706
5650 5649 5649 5649 5648 5647 5648 5648 5648 5648 5648 5648 5650 5652 5654 5654 5655 5656 5658 5659 5661 5664 5666 5668 5670 5672 5674 5676 5679 5681 5682 5684 5685 5687 5689 5690 5691 5692 5693 5693 5694 5694 5694 5695
5647 5645 5644 5643 5642 5641 5641 5641 5641 5641 5641 5641 5643 5644 5646 5646 5647 5648 5649 5651 5653 5655 5657 5659 5661 5663 5665 5667 5669 5671 5673 5674 5675 5677 5678 5680 5681 5681 5682 5682 5683 5683 5683 5683
5643 5641 5639 5638 5637 5635 5633 5634 5634 5633 5634 5633 5634 5636 5638 5637 5638 5639 5641 5643 5645 5647 5649 5650 5652 5654 5656 5658 5659 5661 5663 5664 5666 5667 5668 5669 5670 5671 5671 5672 5672 5672 5672 5672
5638 5636 5633 5632 5630 5628 5628 5629 5627 5626 5626 5626 5626 5629 5629 5629 5630 5631 5632 5634 5636 5638 5639 5641 5643 5645 5646 5648 5650 5652 5653 5654 5656 5657 5658 5659 5660 5660 5661 5661 5662 5662 5661 5661
5634 5630 5627 5625 5624 5622 5625 5620 5619 5618 5618 5618 5618 5619 5620 5621 5622 5623 5624 5625 5627 5629 5630 5632 5634 5635 5637 5639 5640 5642 5644 5645 5646 5647 5648 5649 5650 5650 5651 5651 5651 5651 5651 5651
5628 5625 5622 5619 5617 5615 5616 5614 5612 5611 5611 5611 5610 5611 5612 5613 5613 5614 5616 5617 5618 5620 5621 5623 5625 5626 5628 5630 5631 5633 5634 5635 5637 5638 5639 5639 5640 5640 5641 5641 5641 5641 5641 5641
5623 5619 5617 5613 5610 5608 5609 5606 5604 5604 5603 5604 5603 5604 5604 5605 5606 5608 5608 5609 5610 5611 5613 5614 5616 5617 5619 5620 5622 5623 5625 5626 5627 5628 5629 5630 5630 5631 5631 5631 5631 5631 5631 5631
5618 5614 5611 5607 5603 5602 5602 5599 5598 5598 5598 5596 5596 5596 5597 5597 5598 5599 5600 5601 5602 5603 5604 5605 5607 5608 5610 5611 5613 5614 5615 5617 5618 5618 5619 5620 5621 5621 5622 5622 5622 5622 5622 5622
5612 5609 5605 5601 5598 5598 5594 5592 5591 5590 5589 5589 5589 5589 5589 5590 5590 5591 5592 5592 5593 5594 5596 5597 5598 5600 5601 5603 5604 5605 5606 5608 5609 5610 5610 5611 5611 5612 5612 5613 5613 5613 5613 5613
5607 5603 5599 5596 5595 5590 5587 5585 5583 5582 5581 5581 5581 5581 5581 5582 5582 5583 5583 5584 5585 5586 5587 5588 5590 5591 5593 5594 5595 5597 5598 5599 5600 5601 5601 5602 5603 5603 5603 5604 5604 5604 5604 5604
5601 5596 5592 5588 5586 5583 5580 5577 5576 5574 5573 5573 5573 5573 5573 5573 5574 5574 5575 5576 5577 5578 5579 5580 5581 5582 5584 5585 5586 5588 5589 5590 5591 5592 5593 5593 5594 5594 5594 5595 5595 5595 5595 5595
5595 5590 5586 5582 5578 5575 5573 5569 5568 5566 5565 5565 5565 5565 5565 5565 5565 5565 5567 5568 5569 5570 5571 5572 5573 5574 5575 5576 5577 5579 5580 5581 5582 5583 5584 5584 5585 5585 5586 5586 5586 5586 5586 5586
5588 5584 5579 5576 5571 5567 5565 5562 5559 5558 5557 5556 5557 5557 5557 5557 5558 5558 5559 5560 5561 5562 5563 5564 5564 5565 5566 5567 5569 5570 5570 5572 5573 5574 5575 5575 5576 5576 5576 5577 5577 5577 5577 5577
Wind_Speed
19 21 24 27 31 34 36 39 40 41 42 44 47 47 47 48 48 49 49 49 49 50 51 51 51 50 48 48 47 47 46 45 44 44 43 42 41 41 41 42 42 41 41 41
17 18 20 23 27 30 33 35 37 38 39 42 44 46 47 47 46 46 47 48 48 49 50 51 51 51 51 50 49 48 47 47 46 46 45 44 43 43 43 43 44 44 44 44
14 16 18 20 23 27 31 32 32 34 36 38 41 43 45 46 46 46 47 47 48 49 49 49 50 50 50 50 50 50 49 48 48 47 47 47 46 46 46 46 45 45 46 46
12 14 17 18 20 24 29 31 31 32 34 36 38 40 42 43 44 46 46 46 47 48 49 49 49 50 50 51 50 50 51 50 50 50 50 49 49 48 48 48 48 48 48 48
10 12 16 17 19 22 26 29 29 31 33 34 36 38 39 42 43 44 45 46 46 47 49 50 51 50 50 50 50 50 51 51 51 51 51 51 51 51 50 49 50 50 49 50
7 10 13 17 19 21 24 26 28 30 32 34 33 37 38 38 39 40 42 44 45 46 48 49 50 50 50 50 50 51 51 51 51 51 51 51 52 51 51 52 52 52 51 51
5 8 11 15 18 20 22 25 26 28 31 32 31 35 36 36 37 38 38 39 42 44 46 47 49 49 49 50 50 50 51 51 51 51 51 51 51 52 52 53 53 52 52 52
6 8 10 12 16 18 20 22 23 25 28 29 31 33 33 34 35 35 35 36 38 40 42 44 45 46 47 49 50 50 51 51 52 52 51 51 51 51 51 52 52 52 52 52
7 9 11 12 15 17 19 20 21 24 26 28 29 30 31 31 32 33 34 36 37 38 40 42 42 43 44 46 47 49 50 50 51 52 53 53 53 53 53 53 54 53 53 53
8 10 11 14 16 16 17 18 20 23 25 26 27 27 29 30 31 31 31 33 35 36 37 38 39 40 41 42 44 46 47 48 50 51 52 52 53 54 54 54 53 53 53 53
9 11 12 14 15 16 19 20 21 24 26 27 27 27 27 28 29 29 30 31 32 34 35 36 37 38 39 40 41 43 44 46 47 47 48 49 50 51 51 51 52 52 51 51
11 13 14 15 16 18 20 21 23 25 26 27 27 27 26 28 28 28 29 30 31 32 33 34 36 37 38 38 39 41 42 43 44 45 45 46 47 47 48 48 49 49 49 50
12 13 15 16 17 19 21 22 24 26 27 27 28 27 26 28 28 28 29 30 31 32 33 34 35 36 36 37 38 38 39 40 42 43 44 45 45 46 46 47 47 47 48 48
14 14 16 17 18 20 21 22 24 26 28 28 28 27 26 27 28 29 30 30 31 31 32 33 34 34 35 35 36 37 37 37 38 40 41 42 43 43 44 44 45 46 46 47
15 16 17 18 20 23 24 24 26 27 28 30 29 29 28 28 29 30 30 30 31 31 31 32 32 34 34 34 35 35 36 36 36 37 38 39 40 41 41 42 43 44 44 45
17 18 18 19 21 24 25 24 26 27 28 29 29 28 26 29 30 31 30 31 31 31 31 32 32 33 34 34 34 35 35 36 36 36 37 37 38 39 40 40 40 40 41 41
19 19 20 20 21 23 23 24 26 27 27 28 29 27 27 28 29 30 31 31 31 31 32 32 32 33 33 33 34 34 35 35 35 35 36 36 36 37 37 38 38 38 38 39
21 21 22 22 22 22 22 23 25 26 26 26 26 27 27 27 28 29 30 30 30 30 31 31 32 32 32 32 33 34 34 34 34 35 35 36 36 36 36 37 37 37 38 38
23 23 23 23 23 24 23 22 23 25 25 25 26 26 26 26 27 27 27 28 28 29 29 30 31 31 31 32 32 33 33 33 34 34 35 35 35 35 36 36 36 36 36 36
26 25 24 24 25 25 24 23 23 23 24 25 25 25 25 25 26 26 26 27 28 28 29 29 30 30 31 31 31 31 32 32 33 34 34 34 34 34 35 35 35 35 34 34
27 27 25 25 25 25 25 24 23 23 24 24 24 24 24 25 25 25 26 26 27 28 29 29 29 30 30 30 30 30 31 31 32 32 32 33 33 33 33 33 33 33 33 32
29 28 26 25 25 26 26 25 24 24 25 24 24 24 24 25 25 26 27 27 27 28 29 29 29 29 30 30 30 30 30 31 31 31 31 31 31 31 32 32 32 31 31 31
30 30 28 26 25 26 26 25 25 25 25 25 25 24 25 25 25 26 26 27 28 28 28 29 29 29 29 30 30 30 30 30 30 30 30 30 31 31 31 31 31 31 31 31
31 32 30 28 28 27 26 26 26 26 26 26 26 25 26 26 26 26 26 26 27 27 27 28 29 29 30 30 30 30 31 31 30 31 31 31 31 30 30 30 30 30 30 30
33 33 31 29 28 28 27 27 26 25 26 26 26 26 26 26 25 25 25 25 26 26 27 27 28 28 29 30 30 30 31 31 31 31 31 31 31 30 30 31 30 30 30 29
33 33 33 30 30 28 26 27 27 26 26 26 25 24 24 25 25 24 24 24 25 26 27 27 27 27 27 28 28 29 30 30 30 31 31 31 31 31 31 30 30 29 29 28
Wind_Direction
175 185 192 198 203 207 209 212 216 219 221 222 223 224 224 226 227 227 229 230 232 233 234 235 235 235 237 239 241 243 244 246 249 251 253 255 258 259 260 262 263 265 267 268
173 183 189 196 204 208 210 213 217 220 221 223 226 228 228 228 228 229 231 232 234 235 236 236 237 238 238 239 241 243 245 247 249 250 252 255 257 259 261 263 265 266 268 269
175 185 192 198 203 208 211 214 219 222 223 227 229 230 230 230 231 231 232 233 235 236 237 238 239 239 240 241 242 244 246 247 249 251 252 254 256 258 260 262 265 267 269 270
180 190 197 202 207 210 212 214 219 222 225 230 233 234 231 232 233 234 235 235 236 238 239 240 241 241 242 243 244 245 246 247 249 251 253 254 256 258 260 262 265 266 267 270
189 198 205 208 209 210 213 216 221 225 229 232 234 236 233 235 236 237 238 239 239 240 242 244 244 243 244 245 246 246 247 248 250 252 253 255 257 259 261 263 264 265 267 269
199 208 214 215 214 213 214 217 223 228 232 235 236 239 236 238 239 240 241 242 242 242 243 244 245 245 245 246 247 248 249 250 251 253 254 257 258 260 261 263 265 266 267 269
228 224 223 220 220 218 220 224 231 235 237 240 239 242 240 240 242 243 244 245 245 244 243 244 246 246 246 247 249 250 251 252 253 255 256 257 259 261 262 264 266 266 268 270
253 237 232 228 225 223 223 229 234 239 243 244 243 245 244 244 245 245 246 247 247 247 246 246 247 247 247 247 248 249 251 252 253 255 256 258 260 262 263 264 266 267 269 270
259 243 241 238 235 234 233 233 237 241 244 247 248 249 249 248 249 249 248 248 248 249 249 250 250 250 250 249 249 250 251 252 254 255 256 258 260 261 264 266 267 268 269 270
266 256 251 247 243 240 237 239 242 244 246 251 253 254 254 251 252 252 251 250 250 250 251 252 253 253 252 251 250 250 251 252 253 255 257 258 260 262 263 265 266 268 270 271
273 265 256 252 250 246 245 247 248 248 250 253 255 256 255 255 255 254 253 252 250 250 251 252 252 253 253 253 252 252 252 253 255 256 257 259 261 262 264 265 266 268 269 271
280 269 261 255 252 250 251 252 252 252 253 254 256 256 254 256 256 256 255 253 252 251 251 251 251 252 253 254 254 254 255 256 256 257 258 260 261 262 264 265 266 268 269 271
291 276 270 266 262 259 258 257 254 254 254 254 256 258 256 257 256 256 255 253 252 251 251 251 251 252 253 254 255 255 256 256 257 258 259 261 263 264 266 267 268 269 270 272
300 288 278 273 271 268 264 260 258 257 257 257 257 259 257 259 258 255 254 253 253 253 253 252 251 252 253 254 254 256 256 257 258 259 260 261 263 264 266 267 268 269 270 272
305 295 286 278 272 271 268 265 263 262 262 262 261 259 258 258 257 256 254 253 253 254 253 253 253 252 253 254 255 256 256 258 259 260 260 262 263 264 266 267 268 270 271 272
311 301 293 285 278 274 273 270 267 264 264 264 263 261 260 258 257 257 255 254 254 254 254 253 253 253 254 254 254 255 256 258 259 260 261 262 264 265 266 267 269 271 272 272
316 306 299 293 284 282 279 276 271 268 267 266 266 264 261 261 260 260 257 255 254 254 255 254 254 255 255 255 255 255 256 257 258 259 260 262 264 266 268 269 270 272 272 272
320 310 302 297 292 288 288 281 276 272 269 267 268 266 265 264 262 260 258 256 256 256 255 255 255 255 256 256 256 255 256 257 258 259 261 263 265 267 268 269 270 271 272 273
323 316 308 301 297 295 292 287 280 274 271 269 268 267 267 265 263 261 259 258 257 257 257 257 256 257 257 257 257 256 256 257 258 260 261 263 265 267 268 269 270 271 272 273
325 320 311 304 300 300 299 292 285 279 274 271 270 270 269 266 264 263 260 258 258 257 257 257 257 257 258 258 257 257 257 257 259 261 262 264 265 267 268 269 270 270 271 272
324 321 314 306 301 300 300 296 287 282 279 273 271 270 268 267 265 264 262 260 258 257 257 257 257 257 257 257 257 257 257 258 260 261 262 263 265 266 268 269 269 270 271 272
323 321 315 307 302 300 300 297 289 283 279 274 271 268 266 265 264 262 262 261 259 258 257 257 257 257 257 257 257 258 258 258 260 261 262 263 265 267 268 269 270 271 272 272
322 321 316 309 302 298 296 295 291 284 278 273 270 267 266 266 265 262 261 260 260 259 258 257 257 257 257 257 257 257 258 259 260 261 263 264 266 267 268 269 269 271 272 272
323 320 317 310 301 294 292 290 287 282 278 274 269 268 268 268 266 263 261 259 259 259 259 258 258 257 257 257 257 257 258 259 261 262 263 265 266 266 267 269 270 271 271 271
321 320 318 313 306 298 292 288 286 281 278 274 270 270 269 267 265 263 262 261 260 260 260 260 259 259 258 256 256 258 259 260 261 262 263 264 265 267 268 269 270 271 271 271
318 319 318 316 311 304 298 291 287 282 278 273 269 269 268 265 264 263 262 263 262 261 261 260 260 260 258 257 258 259 260 261 261 262 262 264 266 267 268 268 269 269 270 269